Date String (YYYY-MM-DD hh:mm:ss) UTC,Instrument flags,Ambient pressure (hPa),Sample flow (lpm),Bypass flow (lpm),Sample temperature (°C),Ambient temperature (°C),ASC tube jacket temperature (°C),LED temperature (°C),Box temperature (°C),Sample RH (%),Span deviation,Mass concentration (μg/m³),Mass concentration (μg/m³),Mass concentration (μg/m³)
DateTimeUTC,F1_M11,P_M11,Q1_M11,Q2_M11,T1_M11,T2_M11,T3_M11,T4_M11,T5_M11,U1_M11,ZSPAN_M11,X0_M11,X2_M11,X1_M11
2023-04-24 23:00:00,,0822.4,4.99,0.00,27.6,26.4,00.0,35.9,29.2,09.9,0000.0,0011.24,0005.63,0004.94
2023-04-24 23:01:00,,0822.4,5.00,0.00,27.6,26.4,00.0,35.9,29.3,09.8,0000.0,0010.62,0005.64,0004.93
2023-04-24 23:02:00,,0822.4,5.01,0.00,27.6,26.4,00.0,35.9,29.3,09.7,0000.0,0011.30,0005.63,0004.94
2023-04-24 23:03:00,,0822.5,5.02,0.00,27.6,26.4,00.0,36.0,29.3,09.6,0000.0,0011.24,0005.61,0004.94
2023-04-24 23:04:00,,0822.5,5.00,0.00,27.7,26.4,00.0,36.0,29.3,09.7,0000.0,0011.18,0005.60,0004.93
2023-04-24 23:05:00,,0822.5,5.00,0.00,27.7,26.5,00.0,36.0,29.3,10.0,0000.0,0011.27,0005.63,0004.92
2023-04-24 23:06:00,,0822.7,5.00,0.00,27.7,26.5,00.0,36.0,29.3,10.0,0000.0,0011.22,0005.60,0004.90
2023-04-24 23:07:00,,0822.4,5.01,0.00,27.7,26.5,00.0,36.0,29.3,09.7,0000.0,0011.35,0005.59,0004.90
2023-04-24 23:08:00,,0822.4,4.99,0.00,27.7,26.5,00.0,36.0,29.3,09.6,0000.0,0011.39,0005.58,0004.90
2023-04-24 23:09:00,,0822.6,5.00,0.00,27.7,26.6,00.0,36.0,29.4,09.5,0000.0,0011.36,0005.64,0004.91
2023-04-24 23:10:00,,0822.7,5.01,0.00,27.8,26.6,00.0,36.0,29.4,09.8,0002.0,0010.98,0005.67,0004.90
2023-04-24 23:11:00,,0822.7,5.00,0.00,27.8,26.6,00.0,36.1,29.4,09.8,0003.5,0010.89,0005.65,0004.89
2023-04-24 23:12:00,,0822.9,4.99,0.00,27.8,26.6,00.0,36.1,29.4,10.0,0004.2,0010.84,0005.63,0004.89
2023-04-24 23:13:00,,0823.0,5.00,0.00,27.8,26.7,00.0,36.1,29.4,10.2,0003.8,0010.31,0005.62,0004.87
2023-04-24 23:14:00,,0822.9,5.01,0.00,27.8,26.7,00.0,36.1,29.4,10.1,0004.2,0010.73,0005.62,0004.87
2023-04-24 23:15:00,,0823.1,4.99,0.00,27.8,26.7,00.0,36.1,29.4,10.2,0004.5,0011.44,0005.63,0004.87
2023-04-24 23:16:00,,0822.8,5.01,0.00,27.8,26.7,00.0,36.1,29.4,10.1,0004.9,0011.61,0005.55,0004.86
2023-04-24 23:17:00,,0823.1,5.00,0.00,27.9,26.7,00.0,36.2,29.4,10.1,0003.9,0011.69,0005.58,0004.86
2023-04-24 23:18:00,,0822.9,4.99,0.00,27.9,26.7,00.0,36.2,29.5,10.1,0002.7,0011.16,0005.62,0004.86
2023-04-24 23:19:00,,0823.1,5.00,0.00,27.9,26.7,00.0,36.2,29.5,10.2,0003.2,0011.20,0005.63,0004.85
2023-04-24 23:20:00,,0823.0,5.00,0.00,27.9,26.7,00.0,36.2,29.5,10.5,0003.6,0011.25,0005.60,0004.84
2023-04-24 23:21:00,,0823.0,5.00,0.00,27.9,26.7,00.0,36.2,29.5,10.7,0000.9,0011.44,0005.55,0004.82
2023-04-24 23:22:00,,0822.8,5.01,0.00,27.9,26.7,00.0,36.2,29.5,10.7,0000.0,0012.21,0005.60,0004.83
2023-04-24 23:23:00,,0822.7,5.01,0.00,27.9,26.7,00.0,36.2,29.5,10.9,0000.0,0013.21,0005.63,0004.83
2023-04-24 23:24:00,,0822.7,5.00,0.00,27.9,26.7,00.0,36.2,29.5,11.0,0003.8,0014.12,0005.68,0004.82
2023-04-24 23:25:00,,0822.6,5.00,0.00,28.0,26.7,00.0,36.2,29.5,10.8,0003.2,0014.38,0005.73,0004.80
2023-04-24 23:26:00,,0822.6,5.00,0.00,28.0,26.8,00.0,36.3,29.6,10.5,0003.0,0014.44,0005.72,0004.79
2023-04-24 23:27:00,,0822.4,5.00,0.00,28.0,26.8,00.0,36.3,29.6,10.6,0002.2,0014.25,0005.80,0004.81
2023-04-24 23:28:00,,0822.8,4.98,0.00,28.0,26.8,00.0,36.3,29.6,10.6,0002.4,0014.22,0005.84,0004.82
2023-04-24 23:29:00,,0822.7,5.00,0.00,28.0,26.8,00.0,36.3,29.6,10.6,0002.8,0014.25,0005.83,0004.82
2023-04-24 23:30:00,,0822.8,5.00,0.00,28.1,26.8,00.0,36.3,29.6,10.7,0002.5,0014.22,0005.82,0004.81
2023-04-24 23:31:00,,0822.8,5.00,0.00,28.1,26.9,00.0,36.3,29.6,10.5,0000.9,0014.87,0005.82,0004.80
2023-04-24 23:32:00,,0823.0,5.00,0.00,28.1,26.9,00.0,36.3,29.6,10.2,0000.2,0014.96,0005.87,0004.82
2023-04-24 23:33:00,,0822.9,5.00,0.00,28.1,26.9,00.0,36.4,29.6,10.1,-000.1,0014.68,0005.86,0004.83
2023-04-24 23:34:00,,0822.8,5.00,0.00,28.1,26.9,00.0,36.4,29.7,10.5,0000.2,0013.87,0005.85,0004.83
2023-04-24 23:35:00,,0822.8,5.00,0.00,28.1,26.9,00.0,36.4,29.7,10.3,0001.6,0012.91,0005.80,0004.85
2023-04-24 23:36:00,,0822.6,5.01,0.00,28.1,26.9,00.0,36.4,29.7,10.2,0001.0,0012.75,0005.77,0004.87
2023-04-24 23:37:00,,0823.1,5.00,0.00,28.1,26.9,00.0,36.4,29.7,10.5,0001.4,0012.10,0005.76,0004.88
2023-04-24 23:38:00,,0823.0,5.00,0.00,28.2,26.9,00.0,36.4,29.7,10.2,0002.6,0012.05,0005.73,0004.88
2023-04-24 23:39:00,,0823.0,5.00,0.00,28.2,27.0,00.0,36.4,29.7,10.0,0003.8,0012.02,0005.72,0004.89
2023-04-24 23:40:00,,0822.9,5.00,0.00,28.2,27.0,00.0,36.5,29.8,10.1,0003.6,0011.88,0005.69,0004.90
2023-04-24 23:41:00,,0823.0,5.00,0.00,28.2,27.0,00.0,36.5,29.8,10.1,0003.1,0011.83,0005.68,0004.91
2023-04-24 23:42:00,,0823.1,5.00,0.00,28.2,27.0,00.0,36.5,29.8,10.1,0003.7,0011.58,0005.65,0004.93
2023-04-24 23:43:00,,0822.9,5.00,0.00,28.2,27.0,00.0,36.5,29.8,10.1,0003.1,0011.34,0005.62,0004.93
2023-04-24 23:44:00,,0822.9,5.00,0.00,28.2,27.0,00.0,36.5,29.8,10.3,0003.0,0011.15,0005.60,0004.93
2023-04-24 23:45:00,,0823.0,5.00,0.00,28.2,27.0,00.0,36.5,29.8,10.2,0003.3,0010.61,0005.59,0004.95
2023-04-24 23:46:00,,0823.0,5.00,0.00,28.2,27.0,00.0,36.5,29.8,10.1,0002.4,0010.62,0005.61,0004.96
2023-04-24 23:47:00,,0822.9,5.00,0.00,28.2,27.0,00.0,36.5,29.8,10.1,0002.7,0010.30,0005.58,0004.95
2023-04-24 23:48:00,,0823.0,5.00,0.00,28.3,27.0,00.0,36.6,29.8,10.0,0001.6,0009.96,0005.61,0004.95
2023-04-24 23:49:00,,0823.0,5.03,0.00,28.3,27.0,00.0,36.6,29.8,10.1,-000.4,0009.95,0005.61,0004.95
2023-04-24 23:50:00,,0823.1,5.00,0.00,28.3,27.0,00.0,36.6,29.8,10.3,-001.2,0010.02,0005.59,0004.93
2023-04-24 23:51:00,,0822.8,5.00,0.00,28.3,27.0,00.0,36.6,29.8,10.4,-000.3,0010.05,0005.64,0004.93
2023-04-24 23:52:00,,0823.0,5.00,0.00,28.3,27.0,00.0,36.6,29.9,10.5,0000.0,0009.96,0005.66,0004.94
2023-04-24 23:53:00,,0822.7,5.00,0.00,28.3,27.0,00.0,36.6,29.9,10.5,0000.1,0010.52,0005.71,0004.94
2023-04-24 23:54:00,,0822.8,5.00,0.00,28.3,27.0,00.0,36.6,29.9,10.4,0000.0,0010.31,0005.75,0004.94
2023-04-24 23:55:00,,0822.7,4.99,0.00,28.3,27.0,00.0,36.6,29.9,10.4,0000.0,0010.60,0005.79,0004.95
2023-04-24 23:56:00,,0822.6,5.00,0.00,28.3,27.0,00.0,36.6,29.9,10.1,0000.0,0011.21,0005.85,0004.95
2023-04-24 23:57:00,,0822.7,4.99,0.00,28.3,27.0,00.0,36.7,29.9,10.1,0000.0,0011.40,0005.85,0004.95
2023-04-24 23:58:00,,0822.6,5.01,0.00,28.3,27.0,00.0,36.7,29.9,10.0,0000.0,0012.37,0005.89,0004.97
2023-04-24 23:59:00,,0822.6,5.01,0.00,28.4,27.0,00.0,36.7,29.9,09.9,0000.0,0012.43,0005.89,0004.98
